TimeEDT,TemperatureF,Dew PointF,Humidity,Sea Level PressureIn,VisibilityMPH,Wind Direction,Wind SpeedMPH,Gust SpeedMPH,PrecipitationIn,Events,Conditions,WindDirDegrees,DateUTC
12:52 AM,46.9,42.1,83,29.86,10.0,WNW,5.8,-,0.00,,Overcast,300,2013-09-23 04:52:00
1:07 AM,46.4,41.0,81,29.84,10.0,WNW,4.6,-,N/A,,Overcast,300,2013-09-23 05:07:00
1:52 AM,46.9,39.9,77,29.86,10.0,WSW,3.5,-,N/A,,Overcast,250,2013-09-23 05:52:00
2:52 AM,46.0,37.0,71,29.88,10.0,NW,9.2,-,N/A,,Overcast,320,2013-09-23 06:52:00
3:05 AM,46.4,35.6,66,29.87,10.0,NNW,9.2,16.1,N/A,,Overcast,330,2013-09-23 07:05:00
3:52 AM,44.1,36.0,73,29.90,10.0,NNW,3.5,-,N/A,,Overcast,330,2013-09-23 07:52:00
4:52 AM,44.1,36.0,73,29.90,10.0,SW,3.5,-,N/A,,Overcast,230,2013-09-23 08:52:00
5:52 AM,44.1,35.1,71,29.91,10.0,WNW,6.9,-,N/A,,Overcast,300,2013-09-23 09:52:00
6:52 AM,44.1,35.1,71,29.94,10.0,West,4.6,-,N/A,,Overcast,280,2013-09-23 10:52:00
7:04 AM,44.6,35.6,71,29.92,10.0,Variable,5.8,-,N/A,,Overcast,0,2013-09-23 11:04:00
7:14 AM,44.6,35.6,71,29.92,10.0,Variable,6.9,-,N/A,,Overcast,0,2013-09-23 11:14:00
7:31 AM,44.6,35.6,71,29.93,10.0,WNW,6.9,17.3,N/A,,Overcast,290,2013-09-23 11:31:00
7:52 AM,44.1,36.0,73,29.96,10.0,WNW,6.9,-,N/A,,Overcast,290,2013-09-23 11:52:00
8:52 AM,44.1,35.1,71,29.97,10.0,NW,11.5,19.6,N/A,,Overcast,320,2013-09-23 12:52:00
9:52 AM,45.0,35.1,68,29.99,10.0,NW,6.9,-,N/A,,Overcast,310,2013-09-23 13:52:00
10:52 AM,45.0,36.0,71,29.99,10.0,WNW,5.8,16.1,N/A,,Overcast,290,2013-09-23 14:52:00
11:52 AM,46.0,36.0,68,30.00,10.0,WNW,6.9,-,N/A,,Overcast,290,2013-09-23 15:52:00
12:52 PM,46.9,37.0,68,30.00,10.0,NW,6.9,-,N/A,,Overcast,320,2013-09-23 16:52:00
1:52 PM,48.0,37.0,66,30.00,10.0,WNW,8.1,-,N/A,,Overcast,290,2013-09-23 17:52:00
2:35 PM,48.2,37.4,66,29.98,10.0,WNW,5.8,-,N/A,,Overcast,300,2013-09-23 18:35:00
2:52 PM,48.9,37.9,66,30.00,10.0,NW,10.4,-,N/A,,Overcast,320,2013-09-23 18:52:00
3:42 PM,48.2,37.4,66,29.98,10.0,WNW,9.2,-,N/A,,Overcast,300,2013-09-23 19:42:00
3:52 PM,48.0,37.0,66,30.00,10.0,West,8.1,-,N/A,,Overcast,280,2013-09-23 19:52:00
4:17 PM,48.2,37.4,66,29.98,10.0,NW,5.8,-,N/A,,Overcast,310,2013-09-23 20:17:00
4:52 PM,48.0,37.0,66,30.00,10.0,NW,8.1,-,N/A,,Overcast,310,2013-09-23 20:52:00
5:52 PM,46.9,37.9,71,30.01,10.0,West,3.5,-,N/A,,Overcast,270,2013-09-23 21:52:00
6:52 PM,46.9,37.9,71,30.02,10.0,WSW,3.5,-,N/A,,Overcast,240,2013-09-23 22:52:00
7:52 PM,46.9,37.9,71,30.02,10.0,Variable,3.5,-,N/A,,Overcast,0,2013-09-23 23:52:00
8:52 PM,46.9,37.9,71,30.02,10.0,Calm,Calm,-,N/A,,Overcast,0,2013-09-24 00:52:00
9:52 PM,46.9,37.9,71,30.02,10.0,WSW,4.6,-,N/A,,Overcast,240,2013-09-24 01:52:00
10:52 PM,46.9,39.0,74,30.02,10.0,SW,3.5,-,N/A,,Overcast,230,2013-09-24 02:52:00
11:52 PM,46.9,39.0,74,30.01,10.0,SW,3.5,-,N/A,,Overcast,230,2013-09-24 03:52:00